| time (UTC) | temp F | wind direction | speed knots | gust knots | rain 1hr in | rain 24hr in | rain mn in | humidity % | barometer mb |
| 20260507051627 | 47 | 174 | 1.7 | 4.3 | 0.00 | 0.21 | 0.00 | 91 | 1012.2 |
| 20260507050626 | 47 | 191 | 1.7 | 2.6 | 0.00 | 0.21 | 0.00 | 91 | 1012.2 |
| 20260507045626 | 47 | 213 | 1.7 | 2.6 | 0.00 | 0.21 | 0.00 | 91 | 1012.0 |
| 20260507044626 | 47 | 197 | 0.9 | 4.3 | 0.00 | 0.21 | 0.00 | 91 | 1012.0 |
| 20260507043626 | 47 | 187 | 1.7 | 3.5 | 0.00 | 0.21 | 0.00 | 91 | 1011.8 |
| 20260507042626 | 47 | 214 | 0.0 | 2.6 | 0.00 | 0.21 | 0.00 | 91 | 1011.6 |
| 20260507041626 | 46 | 246 | 1.7 | 4.3 | 0.00 | 0.21 | 0.00 | 92 | 1011.4 |
| 20260507040628 | 46 | 243 | 2.6 | 7.0 | 0.00 | 0.21 | 0.00 | 92 | 1011.3 |
| 20260507035628 | 46 | 170 | 0.9 | 4.3 | 0.00 | 0.21 | 0.00 | 92 | 1011.3 |
| 20260507034626 | 45 | 177 | 0.9 | 3.5 | 0.00 | 0.21 | 0.00 | 92 | 1011.3 |
| 20260507033626 | 45 | 197 | 1.7 | 3.5 | 0.00 | 0.21 | 0.00 | 92 | 1011.3 |
| 20260507032626 | 45 | 201 | 0.9 | 2.6 | 0.00 | 0.21 | 0.00 | 92 | 1011.1 |
| 20260507031626 | 45 | 167 | 0.9 | 2.6 | 0.00 | 0.21 | 0.00 | 91 | 1011.1 |
| 20260507030626 | 45 | 209 | 1.7 | 3.5 | 0.00 | 0.21 | 0.00 | 91 | 1011.0 |
| 20260507025626 | 45 | 267 | 0.0 | 2.6 | 0.00 | 0.21 | 0.00 | 92 | 1010.9 |
| 20260507024626 | 45 | 227 | 0.9 | 3.5 | 0.00 | 0.21 | 0.00 | 91 | 1010.9 |
| 20260507023626 | 45 | 156 | 1.7 | 5.2 | 0.00 | 0.21 | 0.00 | 91 | 1010.7 |
| 20260507022627 | 45 | 193 | 1.7 | 3.5 | 0.00 | 0.21 | 0.00 | 91 | 1010.8 |
| 20260507021627 | 46 | 181 | 1.7 | 4.3 | 0.00 | 0.21 | 0.00 | 92 | 1010.8 |
| 20260507020627 | 46 | 275 | 1.7 | 6.1 | 0.00 | 0.21 | 0.00 | 92 | 1010.8 |
| 20260507015627 | 46 | 160 | 3.5 | 6.1 | 0.00 | 0.21 | 0.00 | 92 | 1010.7 |
| 20260507014627 | 46 | 273 | 1.7 | 6.1 | 0.00 | 0.21 | 0.00 | 92 | 1010.7 |
| 20260507013627 | 46 | 273 | 2.6 | 6.1 | 0.00 | 0.21 | 0.00 | 92 | 1010.6 |
| 20260507012627 | 46 | 158 | 2.6 | 7.8 | 0.00 | 0.21 | 0.00 | 92 | 1010.6 |
| 20260507011627 | 46 | 215 | 1.7 | 5.2 | 0.00 | 0.21 | 0.00 | 93 | 1010.4 |
| 20260507010626 | 46 | 149 | 1.7 | 5.2 | 0.00 | 0.21 | 0.00 | 92 | 1010.4 |
| 20260507005626 | 46 | 166 | 2.6 | 4.3 | 0.00 | 0.21 | 0.00 | 92 | 1010.4 |
| 20260507004626 | 46 | 199 | 2.6 | 4.3 | 0.00 | 0.21 | 0.00 | 92 | 1010.2 |
| 20260507003626 | 46 | 195 | 1.7 | 5.2 | 0.00 | 0.21 | 0.00 | 93 | 1010.3 |
| 20260507002626 | 46 | 185 | 2.6 | 4.3 | 0.00 | 0.21 | 0.00 | 93 | 1010.4 |
| 20260507001626 | 46 | 142 | 0.9 | 2.6 | 0.00 | 0.21 | 0.00 | 92 | 1010.4 |
| 20260507000626 | 46 | 196 | 0.9 | 3.5 | 0.00 | 0.21 | 0.00 | 92 | 1010.5 |
| 20260506235626 | 46 | 213 | 2.6 | 3.5 | 0.00 | 0.21 | 0.00 | 92 | 1010.4 |
| 20260506234626 | 46 | 159 | 2.6 | 3.5 | 0.00 | 0.21 | 0.00 | 92 | 1010.4 |
| 20260506233625 | 46 | 168 | 0.9 | 3.5 | 0.00 | 0.21 | 0.00 | 91 | 1010.4 |
| 20260506232627 | 46 | 160 | 0.9 | 2.6 | 0.00 | 0.21 | 0.00 | 91 | 1010.5 |
| 20260506231627 | 47 | 147 | 1.7 | 5.2 | 0.00 | 0.21 | 0.00 | 91 | 1010.4 |
| 20260506230627 | 47 | 148 | 0.0 | 0.9 | 0.00 | 0.21 | 0.00 | 91 | 1010.4 |
| 20260506225627 | 47 | 144 | 0.0 | 3.5 | 0.00 | 0.21 | 0.00 | 91 | 1010.3 |
| 20260506224627 | 47 | 175 | 1.7 | 3.5 | 0.00 | 0.21 | 0.00 | 91 | 1010.3 |
| 20260506223627 | 47 | 185 | 0.9 | 3.5 | 0.00 | 0.21 | 0.00 | 91 | 1010.2 |
| 20260506222627 | 47 | 185 | 1.7 | 4.3 | 0.00 | 0.21 | 0.00 | 91 | 1010.4 |
| 20260506221626 | 47 | 176 | 1.7 | 3.5 | 0.00 | 0.21 | 0.00 | 90 | 1010.2 |
| 20260506220626 | 47 | 157 | 1.7 | 4.3 | 0.00 | 0.21 | 0.00 | 90 | 1010.1 |
| 20260506215626 | 47 | 168 | 1.7 | 4.3 | 0.00 | 0.21 | 0.21 | 90 | 1010.0 |
| 20260506214626 | 48 | 172 | 1.7 | 3.5 | 0.00 | 0.21 | 0.21 | 90 | 1009.9 |
| 20260506213626 | 48 | 170 | 0.9 | 2.6 | 0.00 | 0.21 | 0.21 | 90 | 1009.9 |
| 20260506212626 | 48 | 172 | 0.9 | 5.2 | 0.00 | 0.21 | 0.21 | 90 | 1009.8 |
| 20260506211626 | 48 | 167 | 0.9 | 2.6 | 0.00 | 0.21 | 0.21 | 90 | 1009.8 |
| 20260506210626 | 48 | 253 | 1.7 | 5.2 | 0.00 | 0.21 | 0.21 | 90 | 1009.7 |
| 20260506205626 | 49 | 151 | 1.7 | 3.5 | 0.00 | 0.21 | 0.21 | 90 | 1009.6 |
| 20260506204625 | 49 | 147 | 1.7 | 3.5 | 0.00 | 0.21 | 0.21 | 89 | 1009.6 |
| 20260506203625 | 49 | 242 | 1.7 | 7.0 | 0.00 | 0.21 | 0.21 | 90 | 1009.7 |
| 20260506202627 | 49 | 174 | 1.7 | 3.5 | 0.00 | 0.21 | 0.21 | 90 | 1009.7 |
| 20260506201627 | 49 | 153 | 2.6 | 6.1 | 0.00 | 0.21 | 0.21 | 90 | 1009.7 |
| 20260506200627 | 49 | 185 | 1.7 | 5.2 | 0.00 | 0.21 | 0.21 | 89 | 1009.6 |
| 20260506195627 | 49 | 203 | 2.6 | 5.2 | 0.00 | 0.21 | 0.21 | 89 | 1009.5 |
| 20260506194627 | 49 | 176 | 2.6 | 7.0 | 0.00 | 0.21 | 0.21 | 89 | 1009.4 |
| 20260506193627 | 49 | 167 | 2.6 | 7.8 | 0.00 | 0.21 | 0.21 | 89 | 1009.3 |
| 20260506192627 | 49 | 205 | 1.7 | 7.0 | 0.00 | 0.21 | 0.21 | 89 | 1009.0 |
| 20260506191627 | 49 | 176 | 2.6 | 7.0 | 0.00 | 0.21 | 0.21 | 90 | 1008.9 |
| 20260506190626 | 49 | 276 | 2.6 | 6.1 | 0.00 | 0.21 | 0.21 | 90 | 1008.7 |
| 20260506185626 | 49 | 207 | 2.6 | 7.0 | 0.00 | 0.21 | 0.21 | 91 | 1008.6 |
| 20260506184626 | 49 | 162 | 1.7 | 4.3 | 0.00 | 0.21 | 0.21 | 91 | 1008.6 |
| 20260506183626 | 49 | 196 | 1.7 | 3.5 | 0.00 | 0.21 | 0.21 | 91 | 1008.3 |
| 20260506182626 | 50 | 197 | 0.9 | 3.5 | 0.00 | 0.21 | 0.21 | 91 | 1008.2 |
| 20260506181626 | 50 | 227 | 3.5 | 7.0 | 0.00 | 0.21 | 0.21 | 92 | 1008.2 |
| 20260506180626 | 50 | 176 | 2.6 | 6.1 | 0.00 | 0.21 | 0.21 | 91 | 1008.2 |
| 20260506175625 | 50 | 127 | 2.6 | 6.1 | 0.00 | 0.21 | 0.21 | 91 | 1008.0 |
| 20260506174627 | 50 | 219 | 1.7 | 4.3 | 0.00 | 0.21 | 0.21 | 91 | 1007.8 |
| 20260506173627 | 50 | 274 | 2.6 | 5.2 | 0.01 | 0.21 | 0.21 | 91 | 1007.8 |
| 20260506172627 | 50 | 178 | 2.6 | 6.1 | 0.01 | 0.21 | 0.21 | 91 | 1007.6 |
| 20260506171627 | 50 | 144 | 1.7 | 7.0 | 0.01 | 0.21 | 0.21 | 91 | 1007.4 |
| 20260506170627 | 50 | 208 | 2.6 | 8.7 | 0.02 | 0.21 | 0.21 | 91 | 1007.4 |
| 20260506165627 | 50 | 187 | 0.9 | 7.0 | 0.02 | 0.21 | 0.21 | 91 | 1007.3 |
| 20260506164627 | 50 | 266 | 2.6 | 9.6 | 0.02 | 0.21 | 0.21 | 92 | 1007.0 |
| 20260506163627 | 49 | 262 | 2.6 | 10.4 | 0.02 | 0.20 | 0.20 | 92 | 1007.2 |
| 20260506162626 | 49 | 163 | 4.3 | 9.6 | 0.04 | 0.20 | 0.20 | 91 | 1007.1 |
| 20260506161625 | 50 | 145 | 2.6 | 8.7 | 0.05 | 0.20 | 0.20 | 91 | 1007.2 |
| 20260506160625 | 49 | 8 | 4.3 | 10.4 | 0.20 | 0.20 | 0.20 | 91 | 1007.0 |
| 20260506155627 | 50 | 208 | 3.5 | 10.4 | 0.20 | 0.20 | 0.20 | 90 | 1007.0 |
| 20260506154627 | 51 | 158 | 3.5 | 8.7 | 0.20 | 0.20 | 0.20 | 90 | 1006.9 |
| 20260506153627 | 52 | 151 | 5.2 | 13.9 | 0.18 | 0.18 | 0.18 | 89 | 1006.9 |
| 20260506152627 | 53 | 250 | 1.7 | 12.2 | 0.17 | 0.17 | 0.17 | 89 | 1006.5 |
| 20260506151627 | 55 | 255 | 7.0 | 13.0 | 0.16 | 0.16 | 0.16 | 84 | 1005.9 |
| 20260506150627 | 60 | 185 | 4.3 | 9.6 | 0.00 | 0.00 | 0.00 | 72 | 1004.9 |
| 20260506145627 | 61 | 33 | 0.0 | 0.0 | 0.00 | 0.00 | 0.00 | 71 | 1004.4 |
| 20260506144627 | 61 | 33 | 0.0 | 0.9 | 0.00 | 0.00 | 0.00 | 72 | 1004.5 |
| 20260506143627 | 62 | 33 | 0.9 | 3.5 | 0.00 | 0.00 | 0.00 | 71 | 1004.5 |
| 20260506142626 | 64 | 29 | 0.9 | 4.3 | 0.00 | 0.00 | 0.00 | 68 | 1004.6 |
| 20260506141626 | 63 | 142 | 0.0 | 0.9 | 0.00 | 0.00 | 0.00 | 73 | 1004.5 |
| 20260506140626 | 62 | 142 | 0.0 | 1.7 | 0.00 | 0.00 | 0.00 | 72 | 1004.5 |
| 20260506135626 | 61 | 136 | 0.0 | 1.7 | 0.00 | 0.06 | 0.00 | 75 | 1004.4 |
| 20260506134626 | 61 | 131 | 0.0 | 0.9 | 0.00 | 0.06 | 0.00 | 76 | 1004.8 |
| 20260506133626 | 61 | 131 | 0.9 | 1.7 | 0.00 | 0.06 | 0.00 | 76 | 1005.0 |
| 20260506132626 | 62 | 127 | 0.0 | 0.9 | 0.00 | 0.06 | 0.00 | 72 | 1005.1 |
| 20260506131627 | 62 | 126 | 0.0 | 2.6 | 0.00 | 0.06 | 0.00 | 70 | 1005.0 |
| 20260506130627 | 63 | 124 | 0.9 | 3.5 | 0.00 | 0.06 | 0.00 | 67 | 1005.0 |
| 20260506125627 | 64 | 68 | 0.9 | 2.6 | 0.00 | 0.06 | 0.00 | 66 | 1004.9 |
| 20260506124626 | 64 | 72 | 0.9 | 1.7 | 0.00 | 0.06 | 0.00 | 67 | 1004.8 |
| 20260506123626 | 63 | 25 | 0.0 | 1.7 | 0.00 | 0.06 | 0.00 | 68 | 1004.7 |
| 20260506122626 | 63 | 25 | 0.0 | 1.7 | 0.00 | 0.06 | 0.00 | 71 | 1004.7 |
| 20260506121628 | 62 | 25 | 0.0 | 1.7 | 0.00 | 0.06 | 0.00 | 69 | 1004.8 |
| 20260506120628 | 62 | 27 | 0.0 | 3.5 | 0.00 | 0.06 | 0.00 | 70 | 1004.7 |
| 20260506115628 | 63 | 349 | 0.0 | 2.6 | 0.00 | 0.06 | 0.00 | 70 | 1004.8 |
| 20260506114628 | 63 | 324 | 0.0 | 1.7 | 0.00 | 0.06 | 0.00 | 69 | 1005.0 |
| 20260506113627 | 63 | 322 | 0.9 | 1.7 | 0.00 | 0.06 | 0.00 | 69 | 1004.9 |
| 20260506112627 | 63 | 322 | 0.9 | 1.7 | 0.00 | 0.06 | 0.00 | 69 | 1004.9 |
| 20260506111627 | 64 | 356 | 0.9 | 2.6 | 0.00 | 0.06 | 0.00 | 69 | 1005.0 |
| 20260506110627 | 64 | 263 | 0.9 | 2.6 | 0.00 | 0.06 | 0.00 | 69 | 1005.1 |
| 20260506105627 | 63 | 316 | 0.9 | 2.6 | 0.00 | 0.06 | 0.00 | 74 | 1005.2 |
| 20260506104627 | 61 | 343 | 1.7 | 3.5 | 0.00 | 0.06 | 0.00 | 72 | 1005.2 |
| 20260506103627 | 61 | 291 | 0.9 | 2.6 | 0.00 | 0.06 | 0.00 | 75 | 1005.3 |
| 20260506102627 | 60 | 336 | 0.0 | 2.6 | 0.00 | 0.06 | 0.00 | 75 | 1005.3 |
| 20260506101629 | 60 | 245 | 0.0 | 0.9 | 0.00 | 0.06 | 0.00 | 73 | 1005.7 |
| 20260506100629 | 60 | 245 | 0.9 | 1.7 | 0.00 | 0.06 | 0.00 | 72 | 1005.8 |
| 20260506095628 | 60 | 245 | 1.7 | 3.5 | 0.00 | 0.06 | 0.00 | 71 | 1006.0 |
| 20260506094628 | 61 | 246 | 0.9 | 2.6 | 0.00 | 0.06 | 0.00 | 72 | 1006.0 |
| 20260506093628 | 60 | 253 | 0.0 | 1.7 | 0.00 | 0.06 | 0.00 | 71 | 1005.9 |
| 20260506092628 | 61 | 253 | 1.7 | 2.6 | 0.00 | 0.06 | 0.00 | 71 | 1006.1 |
| 20260506091628 | 61 | 253 | 0.9 | 1.7 | 0.00 | 0.06 | 0.00 | 72 | 1006.0 |
| 20260506090628 | 60 | 253 | 0.9 | 1.7 | 0.00 | 0.06 | 0.00 | 73 | 1005.9 |
| 20260506085628 | 59 | 253 | 0.0 | 1.7 | 0.00 | 0.06 | 0.00 | 77 | 1005.9 |
| 20260506084627 | 58 | 253 | 0.9 | 1.7 | 0.00 | 0.06 | 0.00 | 77 | 1005.8 |
| 20260506083627 | 58 | 253 | 0.0 | 0.9 | 0.00 | 0.06 | 0.00 | 80 | 1005.8 |
| 20260506082628 | 57 | 253 | 0.9 | 2.6 | 0.00 | 0.06 | 0.00 | 80 | 1005.9 |
| 20260506081628 | 57 | 254 | 0.9 | 1.7 | 0.00 | 0.06 | 0.00 | 81 | 1005.9 |
| 20260506080628 | 57 | 211 | 0.0 | 1.7 | 0.00 | 0.06 | 0.00 | 82 | 1005.9 |
| 20260506072628 | 56 | 176 | 0.9 | 1.7 | 0.00 | 0.06 | 0.00 | 83 | 1006.3 |
| 20260506071627 | 55 | 176 | 0.9 | 2.6 | 0.00 | 0.06 | 0.00 | 84 | 1006.5 |
| 20260506070627 | 55 | 174 | 0.0 | 1.7 | 0.00 | 0.06 | 0.00 | 85 | 1006.3 |
| 20260506061627 | 53 | 110 | 0.0 | 2.6 | 0.00 | 0.06 | 0.00 | 89 | 1006.1 |
| 20260506060627 | 53 | 60 | 0.0 | 1.7 | 0.00 | 0.06 | 0.00 | 90 | 1006.2 |